Preview of NWS' New Version of Forecast
This preview is not operational and should not be used for support decisions.

Regional Weather Roundup (RWR)

Issued by National Weather Service (NWS)

                            
000
ASUS45 KBOI 182210
RWRID 

IDAHO REGIONAL WEATHER ROUNDUP
NATIONAL WEATHER SERVICE BOISE ID
300 PM MST MON FEB 18 2019

NOTE: "FAIR" INDICATES FEW OR NO CLOUDS BELOW 12000 FEET
WITH NO SIGNIFICANT WEATHER AND/OR OBSTRUCTIONS TO VISIBILITY

IDZ012-014-182300-
SOUTHWEST IDAHO

  
CITY           SKY/WX    TMP DP  RH WIND       PRES   REMARKS
BOISE          CLOUDY    34  15  46 N13       30.13F WCI  25          
CALDWELL       CLOUDY    34  17  50 W13       30.17F WCI  25          
MOUNTAIN HOME  CLOUDY    33  21  60 NW23        N/A  WCI  21          
$$

IDZ016-017-182300-
SOUTHCENTRAL IDAHO

  
CITY           SKY/WX    TMP DP  RH WIND       PRES   REMARKS
BURLEY         CLOUDY    25  20  81 W6        30.03F WCI  18          
JEROME         CLOUDY    25  21  85 W8        30.04F WCI  16          
TWIN FALLS     CLOUDY    27  20  75 W18       30.04F WCI  14          
$$

IDZ019>023-182300-
SOUTHEAST IDAHO

  
CITY           SKY/WX    TMP DP  RH WIND       PRES   REMARKS
IDAHO FALLS    MOSUNNY   17   9  70 W7        30.01F WCI   8          
POCATELLO      CLOUDY    23  15  71 W8        30.03S WCI  14          
REXBURG        CLOUDY    16   6  65 W9        29.99F WCI   4          
$$

IDZ006-010-011-018-031-032-182300-
CENTRAL IDAHO MOUNTAINS

  
CITY           SKY/WX    TMP DP  RH WIND       PRES   REMARKS
MCCALL         MOSUNNY   21   6  52 N9        30.02F WCI  11          
HAILEY         CLOUDY    19  16  86 SE10      29.98S WCI   8          
STANLEY          N/A     19   7  59 N5        29.90F WCI  12          
SALMON         CLOUDY    22  14  71 W3        30.04F                  
CHALLIS        MOSUNNY   23  13  65 SE3       29.95F                  
$$

IDZ002-004-006-007-026-182300-
NORTHERN IDAHO

  
CITY           SKY/WX    TMP DP  RH WIND       PRES   REMARKS
LEWISTON       CLOUDY    30  15  53 N3        30.32F                  
LOWELL         NOT AVBL                                               
COEUR D'ALENE  NOT AVBL                                               
MULLAN PASS    LGT SNOW  10   3  73 VRB5      29.97S WCI   2          
$$